DECAYED

NOAA 16 DEB, 42366 (Decayed)

Orbit data source: Space-Track

NOAA 16 DEB, 42366 was space debris in SSO originally from a launch on Thu, 21 Sep 2000 UTC launched from the Air Force Western Test Range (AFWTR). Debris objects in space refer to the collection of defunct objects orbiting the Earth. Examples of debris include non-operational satellites, rocket bodies, and fragments generated from explosions, collisions, or faulty payload assembly.

Not visible in the next 10 days
Identifier
42366, 2000-055RJ
Orbit
Decayed
Country
Flag of USUS
Related business
Manufacturer
Unknown
Mission
Decayed spacecraft
Bus & Motor
Unknown
Mass
Unknown
Launch date (UTC)
2000-09-21 (26 years ago)
Launch vehicle
Unknown
Launch site
Air Force Western Test Range (AFWTR)
Object type
Payload
Rocket body
Debris
Shape & HBR
Unknown shape, 0.1 m
Radar Cross Section
Medium (>0.1 m² and <1 m²)

Expand to show TLE details & history
Last TLE update: 6 months ago

TLE from 6 months ago
0 NOAA 16 DEB
1 42366U 00055RJ  26082.71664477  .00492005  00000-0  89991-2 0  9999
2 42366  98.8459   4.2716 0017375  87.6849 272.6385 15.47398671532274
Epoch: 2026-03-23T17:11Z
TLE epoch observation values (Epoch: 2026-03-23T17:11:58.108Z)
Latitude
-0.00006°
Longitude
-74.92516°
Altitude
426.897 km
Speed
7.656 km/s
True Right ascension
00h 17m 05s
True Declination
0° 00' 00"
Sunlit
Object was in daylight at epoch
Visualization orbit readout
Latitude
Unknown
Longitude
Unknown
Altitude
Unknown
Speed
Unknown
Apparent Right ascension
Unknown
Apparent Declination
Unknown
Sunlit
N/A
Visualization observer readout
Local Sidereal Time
21:36:08
Azimuth
Unknown
Elevation
Unknown
Doppler factor
Unknown
Orbital elements
Apogee altitude
433.151 km
Perigee altitude
409.523 km
Semi-major axis
6,799.474 km
Eccentricity
0.00174
Inclination
98.8459°
RAAN
4.2716°
Arg. of periapsis
87.6849°
True anomaly
272.43959°
Mean anomaly
272.6385°
Eccentric anomaly
272.53905°
Mean motion
3.87106 °/min
Orbital period
93 mins
BSTAR
0.0089991
Loading maneuver chart data...
Computing Atmospheric mass density...
Loading historical data...
Loading historical data...
Loading historical data...
Loading historical data...
Loading historical data...
Loading historical data...
Loading historical data...

Documentation

Showing up to 5 results
|